TIME,DELAY(SENSOR),PRES,OXYGEN,RAWTEMP,T(OPTODE),TCPHASE,FLUOR,BETA(BETA700),BETA(BETA412),BETA(BETA440),CDOM,C(CSC),ED(ED411.90),ED(ED443.80),ED(ED489.40),ED(ED554.70),LU(LU412.20),LU(LU443.80),LU(LU489.40),LU(LU555.00),COMP,TILTX,TILTY,CHECK
1359411532,5804,848.8099975585938000,177.0697021484375000,469.0404052734375000,8.4869136810302730,38.8679389953613300,57,116,98,79,79,12099,2146963044,2147516004,2147292891,2147513334,2147085302,2146928246,2147708891,2147121389,2440,-1,9,32339
1359415128,5804,937.4899902343750000,218.8179931640625000,528.7609863281250000,6.6343569755554200,37.2964591979980500,56,117,97,78,81,12095,2146962541,2147516928,2147294756,2147521088,2147088064,2146918921,2147725074,2147120310,2249,-1,9,36068
1359418728,5803,941.5900268554688000,225.9904937744140600,534.2982788085938000,6.4613342285156250,36.9987716674804700,58,115,98,80,81,12094,2146961856,2147515657,2147300690,2147523739,2147088429,2146922742,2147729298,2147120896,3391,-1,9,13991
1359422328,5807,966.9699707031250000,239.0715942382812500,545.0067749023438000,6.1260719299316410,36.4987297058105500,57,117,98,79,81,12093,2146964489,2147518052,2147298642,2147521133,2147088877,2146924726,2147731483,2147121426,263,-1,9,60984
1359425928,5806,976.0499877929688000,241.8226013183593800,547.1343994140625000,6.0593571662902830,36.3964118957519500,59,115,97,80,82,12097,2146961846,2147518921,2147300013,2147524800,2147087670,2146925339,2147730825,2147119789,3173,-1,9,59473
1359429528,5809,975.5200195312500000,237.9766998291015600,547.5440063476562000,6.0465087890625000,36.6010017395019500,58,117,97,80,81,12095,2146962870,2147517275,2147297819,2147524854,2147088484,2146918518,2147729554,2147120100,4,0,8,7591
1359433128,5807,977.2399902343750000,243.2449035644531200,549.9265747070312000,5.9717459678649900,36.3748397827148440,59,116,97,78,81,12094,2146960356,2147518528,2147300525,2147527396,2147092150,2146922550,2147730322,2147118665,614,-1,8,38529
1359436728,5805,980.5499877929688000,242.3883972167968800,551.0825195312500000,5.9354610443115230,36.4397315979003900,59,118,98,79,80,12089,2146964690,2147519780,2147299675,2147526016,2147091995,2146924699,2147731245,2147122294,342,-1,8,44915
1359440328,5806,979.1199951171875000,246.1038970947265600,552.7255859375000000,5.8838620185852050,36.2827110290527340,59,118,97,80,81,12090,2146965668,2147519232,2147301686,2147524059,2147092754,2146919232,2147732077,2147116525,3505,-1,9,64904
1359443928,5804,984.0100097656250000,248.4317932128906200,552.1577148437500000,5.9016971588134770,36.1560287475585940,60,116,98,79,80,12089,2146962852,2147520228,2147301074,2147527378,2147089252,2146930779,2147726217,2147121234,2816,-1,9,15694
1359447528,5805,984.3200073242188000,249.8735046386718800,553.6710205078125000,5.8541641235351560,36.1128196716308600,58,119,97,79,80,12090,2146961846,2147520457,2147300077,2147524635,2147089993,2146917897,2147727085,2147118966,348,-1,8,2405
1359451128,5803,986.5599975585938000,248.6475982666015600,553.8825073242188000,5.8475170135498050,36.1769104003906250,58,124,98,79,81,12087,2146962550,2147517897,2147301942,2147526464,2147093101,2146915309,2147727387,2147118628,174,-1,9,62136
1359454728,5807,981.3099975585938000,249.2033996582031200,553.5972290039062000,5.8564801216125490,36.1448097229003900,59,119,97,81,80,12086,2146961490,2147517330,2147299382,2147526281,2147087826,2146917248,2147729161,2147120283,301,-1,9,40840
1359458328,5804,985.5900268554688000,248.7427062988281200,552.9688110351562000,5.8762249946594240,36.1555480957031250,60,118,98,80,80,12086,2146965385,2147516425,2147299675,2147525275,2147089664,2146923218,2147733686,2147119835,2968,-1,9,36058
1359461928,5808,985.6799926757812000,247.7498931884765600,553.0540161132812000,5.8735451698303220,36.2060585021972660,59,120,98,81,81,12084,2146959478,2147518363,2147300214,2147528128,2147090084,2146923291,2147732214,2147123629,457,-1,9,48628
1359465528,5807,989.2500000000000000,248.3433074951172000,553.2830200195312000,5.8663520812988280,36.1810913085937500,59,117,98,80,80,12084,2146962395,2147517696,2147303716,2147524608,2147093339,2146913051,2147731282,2147118052,433,-1,9,60476
1359469128,5805,989.1799926757812000,247.3538055419922000,552.7363891601562000,5.8835220336914060,36.2199592590332000,59,118,99,78,81,12081,2146964041,2147518427,2147301458,2147525421,2147090578,2146922084,2147729929,2147121453,3219,-1,8,47466
1359472728,5809,990.3400268554688000,246.8652954101562500,552.9235229492188000,5.8776440620422360,36.2482910156250000,59,118,100,78,81,12082,2146962422,2147521700,2147298880,2147524361,2147092306,2146921316,2147732992,2147121764,98,-1,8,9268
1359476328,5806,1002.7299804687500000,245.6206970214843800,549.3897705078125000,5.9885940551757810,36.2455596923828100,59,118,98,79,81,12085,2146963264,2147522523,2147299858,2147521490,2147089984,2146921682,2147729225,2147122861,3387,-1,9,1019
1359479928,5804,999.1500244140625000,239.5652008056640600,546.7341918945312000,6.0719089508056640,36.5044593811035160,59,120,98,78,81,12081,2146962276,2147519670,2147298733,2147524278,2147088813,2146916946,2147728914,2147119926,3474,-1,9,39449
1359483528,5806,1003.7100219726562000,239.1464996337890600,543.8853759765625000,6.1612238883972170,36.4744606018066400,59,121,97,80,80,12083,2146959040,2147517302,2147298084,2147523017,2147085787,2146922203,2147729737,2147118857,3257,-1,9,31934
1359487128,5808,1002.1699829101562000,239.3276977539062500,545.5012207031250000,6.1105751991271970,36.4947700500488300,59,118,98,80,82,12083,2146958528,2147519451,2147300269,2147521846,2147088859,2146920018,2147725065,2147122358,3535,-1,9,49882
1359490728,5808,998.5000000000000000,237.2272949218750000,545.5880126953125000,6.1078529357910160,36.6047401428222660,59,117,99,78,80,12081,2146962614,2147517577,2147298331,2147524132,2147090075,2146920950,2147725906,2147122788,113,-1,9,8323
1359494328,5807,997.9099731445312000,238.6183013916015600,545.5877075195312000,6.1078610420227050,36.5326309204101560,58,122,98,79,80,12081,2146961362,2147519433,2147299373,2147524937,2147092041,2146923053,2147728365,2147119424,134,-1,9,10002
1359497928,5806,998.2600097656250000,237.9676971435547000,546.1716918945312000,6.0895500183105470,36.5770187377929700,59,123,97,78,81,12080,2146962505,2147515776,2147300635,2147526345,2147093092,2146917220,2147727387,2147122020,3436,-1,9,61076
1359501528,5807,998.2899780273438000,239.7548065185547000,544.8535156250000000,6.1308779716491700,36.4603996276855500,58,117,98,78,81,12071,2146960603,2147521627,2147298240,2147524681,2147087670,2146921856,2147726528,2147119515,3138,-1,9,29524
1359505128,5809,1006.1799926757812000,237.5782928466797000,543.0833740234375000,6.1863560676574710,36.5409507751464840,58,121,99,81,81,12071,2146963300,2147517531,2147300352,2147524022,2147090166,2146922285,2147733293,2147122541,63,-1,9,39651
1359508728,5807,1001.5800170898438000,239.1219940185547000,544.4708251953125000,6.1428761482238770,36.4863014221191400,58,121,97,78,80,12073,2146962788,2147518052,2147300443,2147525467,2147088996,2146915684,2147725970,2147118921,3433,-1,9,38077
1359512328,5810,996.0700073242188000,238.7021942138672000,545.2415161132812000,6.1187148094177250,36.5221405029296900,58,119,99,79,80,12070,2146963117,2147519131,2147300635,2147523099,2147091776,2146928603,2147732315,2147120685,10,-1,8,55681
1359515928,5804,1006.4500122070312000,240.8303985595703000,545.3505859375000000,6.1152939796447750,36.4145011901855500,59,119,97,78,81,12069,2146961307,2147519341,2147298898,2147520411,2147087561,2146918765,2147728201,2147121627,3270,-1,9,18435
1359519528,5808,1008.5800170898438000,238.7808990478515600,543.6148071289062000,6.1697030067443850,36.4884605407714840,59,120,97,79,80,12074,2146959817,2147517888,2147298569,2147523218,2147088329,2146922889,2147725110,2147122532,2712,-1,9,36721
1359523128,5805,1012.4500122070312000,237.3760986328125000,543.2520141601562000,6.1810722351074220,36.5540390014648440,58,118,98,79,81,12067,2146960987,2147517467,2147301339,2147525476,2147089718,2146927204,2147724032,2147121993,2628,-1,9,16652
1359526728,5805,1008.8300170898438000,236.3943023681640600,541.7938232421875000,6.2267570495605470,36.5789413452148440,58,120,98,79,81,12063,2146959661,2147518939,2147297801,2147520923,2147089435,2146921974,2147725952,2147123099,2842,-1,9,29424
1359530328,5807,1011.7800292968750000,238.5449981689453000,543.9494018554688000,6.1592178344726560,36.5071296691894500,58,119,99,78,80,12067,2146961600,2147517513,2147299328,2147523794,2147088219,2146927817,2147728064,2147121636,3321,-1,9,24207
1359533928,5805,1010.8400268554688000,237.6006011962890600,542.4677124023438000,6.2056469917297360,36.5286788940429700,59,122,97,78,79,12067,2146959725,2147518445,2147298980,2147521161,2147091008,2146926061,2147727972,2147121846,2921,-1,9,44793
1359537528,5808,1013.1400146484375000,236.1508026123047000,542.6193237304688000,6.2008948326110840,36.6066818237304700,59,124,97,78,81,12067,2146962102,2147518537,2147297526,2147521444,2147090596,2146922185,2147728795,2147121600,244,-1,9,26055
1359541128,5806,1012.9099731445312000,236.2337951660156200,542.7866210937500000,6.1956558227539060,36.6053009033203100,58,121,99,79,79,12062,2146960950,2147523236,2147296530,2147521014,2147085988,2146920548,2147726162,2147121581,400,-1,9,24779
1359544728,5809,1015.9299926757812000,236.9429016113281200,541.5565185546875000,6.2341899871826170,36.5458488464355500,59,121,96,78,81,12061,2146962386,2147517924,2147298349,2147519744,2147088950,2146918948,2147726537,2147124068,71,-1,9,39425
1359548328,5809,1013.8300170898438000,234.5204010009765600,540.5775756835938000,6.2648468017578125,36.6551399230957000,59,122,97,78,81,12062,2146962432,2147518345,2147299209,2147525083,2147087506,2146920704,2147725915,2147121993,12,-1,9,55441
1359551928,5804,1023.8400268554688000,233.9617004394531200,539.0479736328125000,6.3127379417419430,36.6566696166992200,59,121,98,78,80,12060,2146958464,2147516288,2147302564,2147520841,2147088585,2146920274,2147726966,2147121060,3045,-1,9,58196
1359555528,5809,1015.5700073242188000,235.8065032958984400,541.9766235351562000,6.2210330963134770,36.6128196716308600,58,120,97,79,80,12058,2146961508,2147520338,2147297051,2147519058,2147087972,2146925138,2147728246,2147123337,167,-1,9,64287
1359555955,5806,1083.0000000000000000,235.7689056396484400,541.7783203125000000,6.2272448539733890,36.6111717224121100,58,121,97,79,80,12059,2146961718,2147517028,2147299949,2147520137,2147084032,2146918061,2147727771,2147119945,555,-1,9,8390
